Location: Burgberg
(50.1428°N, 11.0671°E)
Time: 05:10:03
(UTC+00:00)

Transit 2A Rocket - Pass Details

Date: 26 January 2020
Orbit: 591 x 912 km, 66.7° (Epoch: 25 February)

Event Time Altitude Azimuth Distance (km) Brightness Sun altitude
Exits shadow 05:12:14 24° 238° (WSW) 1,240 5.7 -16.9°
Maximum altitude 05:14:40 60° 311° (NW) 688 4.5 -16.5°
Drops below altitude 10° 05:19:01 10° 32° (NNE) 1,976 7.4 -15.8°
Sets 05:21:22 0° 36° (NE) 2,916 8.4 -15.4°
